Temp
45 44 45 46 46 46 47 46 46 47 47 47 47 48 48 47 47 46 47 47 43 43 47 53 53 50 51 51 40 44 42 43 41 36 36 37 34 40 35 33 35 33 31 30 32 26 23 36 36 29 30 33 34 33
43 44 44 45 45 46 47 46 47 47 47 47 47 47 46 46 47 47 44 49 51 46 45 53 53 54 54 56 51 48 45 44 45 41 43 41 36 38 36 29 39 30 34 30 29 28 33 35 32 35 36 33 31 31
46 46 47 47 46 46 47 47 47 46 47 47 47 47 47 47 48 48 50 50 52 44 47 48 46 54 58 57 59 47 50 51 45 51 44 42 36 41 33 33 35 38 42 35 33 32 33 34 35 35 35 32 32 32
46 45 46 46 47 47 47 46 45 45 46 46 46 47 47 48 49 49 51 53 53 50 39 42 56 52 59 59 58 57 54 55 53 51 44 41 37 44 36 39 34 39 42 38 31 33 34 34 34 33 32 32 31 31
47 46 46 47 47 47 46 46 46 46 45 45 47 48 49 49 50 50 52 56 58 49 38 40 50 55 57 57 55 56 53 51 49 45 42 40 44 42 42 41 34 36 32 33 29 36 34 32 34 34 31 30 30 30
46 46 46 47 46 46 45 46 46 46 47 48 48 49 49 49 49 51 45 55 60 57 45 35 50 50 54 55 54 53 54 53 51 47 44 45 49 44 36 31 33 35 38 39 33 37 35 34 35 35 31 31 31 30
46 46 46 47 47 46 45 47 47 47 47 48 48 49 49 50 52 46 44 50 50 55 46 39 39 48 53 54 52 51 53 52 51 48 44 44 45 45 40 31 31 34 36 37 38 36 31 34 31 34 33 32 33 32
46 46 46 46 46 47 47 46 47 47 47 48 48 49 49 50 48 49 50 50 48 54 52 37 37 42 51 45 43 53 49 51 49 48 47 42 45 43 31 31 32 34 36 35 37 39 37 36 36 35 36 35 32 31
46 45 45 46 45 46 46 46 47 47 47 48 49 49 52 52 49 49 46 48 56 53 42 40 34 32 50 47 48 49 51 40 49 41 42 45 40 31 33 33 34 34 34 34 36 36 35 33 33 34 35 34 32 31
46 45 45 45 45 46 46 46 47 47 48 49 52 47 34 47 46 48 50 46 49 51 49 40 46 35 47 45 41 42 45 40 35 40 46 38 31 38 40 40 39 38 38 37 32 30 32 32 33 34 34 34 33 31
45 45 45 45 45 46 46 47 48 49 49 52 42 40 51 48 52 49 38 41 43 40 46 45 44 40 51 41 39 45 40 40 34 37 37 33 30 33 38 38 40 40 40 39 40 38 38 37 34 34 33 34 33 33
46 46 45 45 46 46 46 47 48 51 49 48 50 52 52 47 43 37 36 40 41 36 43 42 44 47 46 52 42 43 37 38 31 43 35 32 32 36 36 36 36 38 38 38 40 38 38 37 36 34 33 32 29 25
46 46 45 45 45 46 46 46 46 47 46 54 47 37 42 39 31 32 27 34 33 39 43 42 36 43 47 47 40 38 31 31 42 32 32 31 34 35 35 35 34 36 37 38 36 37 37 35 34 31 27 25 24 23
45 45 45 45 45 45 45 46 46 50 52 41 36 29 33 31 33 32 33 35 40 42 41 40 36 36 40 34 37 31 34 36 29 28 29 32 33 33 34 34 33 31 31 32 31 31 30 28 27 27 27 25 22 22
45 46 46 45 45 45 45 46 47 54 46 36 38 29 30 33 35 35 38 39 41 44 42 39 40 39 36 32 38 34 29 28 32 29 30 32 32 31 31 31 30 30 29 29 29 27 26 25 25 24 24 24 23 22
46 47 45 45 45 45 46 50 51 50 45 38 36 32 35 33 31 33 35 36 46 45 46 45 38 33 32 34 32 30 31 29 29 30 31 32 31 31 30 30 30 30 30 28 27 26 25 24 24 24 24 22 22 21
48 44 44 45 45 46 48 49 47 41 38 36 32 33 34 33 32 33 35 40 48 43 34 40 32 32 39 34 33 35 29 30 31 31 32 32 31 30 30 30 29 29 28 27 26 26 25 26 25 23 21 22 24 23
47 47 44 45 46 49 47 47 43 40 32 34 32 32 34 34 33 34 38 42 44 42 41 34 40 33 31 29 31 31 31 32 33 32 32 32 31 31 31 28 28 29 27 27 27 26 25 24 26 26 27 28 27 26
45 45 44 45 46 46 41 42 45 32 32 34 35 36 36 35 37 37 40 44 48 48 42 39 34 32 31 35 32 32 32 33 30 30 31 31 32 30 29 29 29 28 27 27 28 28 28 31 32 31 31 30 28 29
45 45 44 45 46 46 38 39 46 37 32 34 36 35 36 34 36 37 39 43 43 41 38 36 33 33 33 34 36 35 34 35 33 29 28 29 30 30 29 29 29 29 29 30 31 31 32 33 34 33 32 33 30 29
48 48 47 51 49 46 40 37 35 36 35 32 35 35 33 36 35 36 37 43 38 37 35 35 33 33 38 38 39 38 37 38 34 35 32 28 30 31 30 31 30 31 31 31 30 31 31 31 32 32 31 30 29 27
47 45 48 48 42 41 38 40 36 39 36 34 34 35 32 31 32 34 39 36 37 35 36 35 35 37 38 38 40 41 40 38 37 36 34 33 29 29 29 30 30 29 31 31 32 30 31 32 31 30 28 27 26 25
46 47 44 43 34 33 31 41 33 36 30 31 36 32 30 31 33 39 32 37 35 39 41 40 40 38 38 38 39 38 40 40 38 36 34 34 33 33 32 31 32 30 29 31 33 32 30 30 29 27 27 26 24 23
44 37 31 31 33 27 33 32 38 36 35 34 33 30 31 31 35 33 33 38 33 37 38 36 37 35 36 36 36 35 37 38 33 33 34 32 30 30 32 31 32 33 33 33 31 29 29 28 27 27 25 24 23 22
33 29 31 28 34 31 29 29 30 33 28 29 29 30 31 34 31 32 33 33 34 33 33 35 36 37 34 34 33 33 33 38 34 31 33 34 31 30 30 31 32 33 33 31 28 28 27 27 27 26 25 24 22 21
27 29 29 30 30 30 30 26 28 28 31 29 30 32 33 31 28 29 35 32 33 32 32 32 33 34 36 37 33 33 35 39 36 31 33 34 32 30 29 28 28 29 33 32 29 28 26 27 25 24 23 23 20 19
26 27 33 38 36 35 31 33 34 31 28 27 31 29 29 25 28 32 33 33 32 32 33 34 35 34 35 33 35 35 36 35 35 34 33 32 32 34 33 30 28 30 32 32 31 29 27 25 24 22 21 21 21 19
32 32 26 30 31 34 28 29 28 28 30 36 34 28 27 29 29 32 32 32 32 32 33 34 35 35 34 33 32 31 31 31 30 30 29 29 29 30 31 31 32 31 31 31 31 29 27 25 23 21 20 18 17 18
30 34 34 26 29 30 29 29 31 36 38 36 31 31 32 34 33 32 33 33 33 32 30 30 30 32 31 31 31 31 30 29 27 23 24 22 23 24 28 29 29 29 29 28 27 27 26 24 22 20 18 16 15 14
30 34 29 29 25 26 31 33 31 31 34 33 33 36 35 32 31 33 32 31 30 30 32 32 30 30 28 27 27 27 30 31 31 29 27 25 25 26 26 25 25 25 24 22 19 18 19 17 16 14 13 12 10 9
33 31 29 30 29 32 30 30 30 30 30 30 31 29 32 30 31 32 31 32 32 31 30 29 29 30 29 29 27 26 25 29 29 30 29 27 27 26 25 25 24 22 19 17 16 15 13 13 12 11 10 9 6 6
29 29 28 26 28 28 29 29 30 28 30 27 29 30 29 27 28 27 25 27 27 26 27 29 29 28 30 31 32 32 32 28 28 28 28 27 26 25 24 23 22 21 19 18 17 16 16 14 13 11 7 6 7 5
28 28 28 27 27 26 28 27 27 26 27 26 27 28 28 28 26 22 25 25 25 26 29 29 31 31 30 29 29 28 28 28 28 27 26 24 23 22 22 22 21 20 19 18 16 16 14 12 9 8 7 4 3 2
MSLP
997.17 997.35 997.37 997.63 998.05 998.59 998.88 999.44 999.88 1000.01 1000.64 1001.40 1002.13 1002.83 1003.47 1004.42 1005.23 1005.59 1004.85 1005.04 1005.12 1003.95 1003.64 1002.76 1003.13 1002.93 1002.94 1002.97 1004.31 1005.71 1006.41 1006.95 1007.39 1007.23 1006.98 1006.69 1006.77 1006.79 1007.78 1009.02 1009.25 1009.72 1010.28 1010.70 1011.54 1012.51 1013.47 1014.45 1014.49 1015.17 1016.01 1016.19 1016.52 1016.49
996.17 995.85 996.27 996.77 997.52 998.02 998.78 999.33 1000.00 1000.59 1001.10 1001.69 1002.40 1003.02 1003.75 1004.56 1005.10 1005.39 1004.93 1005.02 1004.70 1004.21 1004.65 1004.55 1004.33 1004.25 1003.47 1003.07 1003.51 1005.18 1005.40 1006.02 1006.44 1006.37 1006.15 1006.63 1007.14 1007.53 1008.01 1009.01 1009.85 1010.57 1010.87 1011.25 1012.75 1013.65 1014.83 1015.54 1016.00 1016.53 1016.68 1017.01 1017.64 1017.88
995.14 995.40 995.50 996.36 997.52 998.48 999.22 999.87 1000.52 1000.99 1001.34 1001.82 1002.37 1003.00 1003.71 1004.33 1004.69 1004.84 1004.39 1004.37 1003.96 1004.08 1004.49 1004.50 1004.58 1004.35 1004.17 1004.20 1004.25 1004.78 1005.25 1005.74 1006.34 1006.43 1006.56 1006.92 1007.37 1007.73 1008.14 1009.09 1009.87 1010.79 1011.17 1011.57 1013.17 1014.57 1015.27 1016.09 1016.78 1017.28 1017.60 1018.15 1018.57 1018.98
996.61 996.88 997.05 997.75 998.49 999.18 999.81 1000.41 1000.87 1001.16 1001.52 1002.02 1002.33 1002.93 1003.56 1004.08 1004.35 1004.65 1004.10 1003.82 1003.51 1003.53 1004.40 1005.80 1005.44 1005.08 1005.01 1004.81 1004.98 1004.93 1005.16 1005.83 1006.16 1006.47 1006.76 1007.24 1007.60 1008.27 1008.96 1009.52 1010.49 1011.23 1011.41 1011.99 1013.81 1014.97 1015.79 1016.57 1017.31 1017.98 1018.56 1019.04 1019.47 1019.93
997.89 998.25 998.60 999.04 999.52 1000.00 1000.44 1000.99 1001.20 1001.50 1001.94 1002.28 1002.59 1002.98 1003.40 1003.67 1004.12 1004.40 1004.12 1003.71 1003.26 1003.69 1004.72 1005.83 1005.93 1005.84 1005.59 1005.52 1005.58 1005.61 1005.69 1005.88 1006.08 1006.38 1007.04 1007.50 1008.12 1008.91 1009.56 1010.24 1011.70 1012.82 1013.20 1013.05 1013.91 1014.69 1015.61 1016.90 1017.83 1018.51 1019.09 1019.67 1020.16 1020.56
999.02 999.32 999.63 999.98 1000.39 1000.70 1001.21 1001.42 1001.64 1002.01 1002.11 1002.16 1002.49 1003.12 1003.50 1003.67 1003.88 1003.98 1003.93 1003.93 1003.31 1003.75 1004.44 1005.57 1006.63 1006.52 1006.25 1006.03 1005.92 1005.93 1005.83 1005.80 1006.21 1006.42 1007.27 1008.09 1008.45 1009.02 1009.69 1011.25 1013.41 1014.10 1014.20 1014.29 1015.03 1015.73 1016.25 1017.31 1018.22 1018.88 1019.50 1020.12 1020.64 1021.01
999.91 1000.28 1000.57 1000.95 1001.23 1001.56 1001.82 1001.84 1001.98 1002.20 1002.24 1002.53 1002.89 1003.30 1003.68 1003.97 1004.30 1004.39 1004.62 1004.55 1004.34 1003.85 1004.16 1005.48 1006.45 1006.95 1006.59 1006.31 1006.34 1006.48 1006.30 1006.22 1006.23 1006.73 1007.75 1008.27 1008.68 1009.25 1009.70 1011.94 1014.13 1014.79 1015.05 1015.40 1015.97 1016.52 1017.26 1017.81 1018.47 1019.25 1019.84 1020.50 1020.98 1021.44
1000.96 1001.10 1001.46 1001.73 1001.89 1002.14 1002.38 1002.47 1002.42 1002.54 1002.76 1002.89 1003.16 1003.45 1003.77 1004.08 1004.65 1004.55 1004.70 1004.49 1004.47 1003.70 1004.01 1005.32 1006.59 1007.06 1007.06 1006.52 1006.65 1006.53 1006.44 1006.39 1006.89 1007.07 1007.83 1008.52 1009.15 1009.79 1011.51 1013.57 1014.72 1015.32 1015.72 1016.14 1016.41 1016.56 1017.07 1018.04 1018.72 1019.39 1020.01 1020.53 1021.06 1021.51
1001.87 1002.08 1002.28 1002.58 1002.70 1002.94 1003.18 1003.13 1003.19 1003.29 1003.49 1003.69 1003.82 1004.04 1004.14 1004.22 1004.36 1005.01 1005.15 1004.74 1004.21 1004.04 1004.20 1005.24 1005.93 1006.60 1006.81 1006.51 1006.83 1006.78 1006.70 1007.21 1007.76 1008.11 1008.36 1008.59 1009.48 1011.03 1012.41 1013.89 1014.76 1015.43 1015.84 1016.33 1016.80 1017.28 1017.82 1018.42 1019.01 1019.56 1020.05 1020.56 1021.18 1021.78
1002.75 1003.00 1003.17 1003.36 1003.55 1003.62 1003.73 1003.84 1003.87 1003.84 1003.74 1003.68 1003.64 1004.11 1004.90 1005.16 1005.41 1005.25 1005.10 1005.00 1004.44 1004.23 1004.61 1005.32 1005.85 1006.50 1006.57 1006.82 1007.27 1007.47 1007.43 1007.34 1007.89 1008.61 1008.95 1009.35 1011.32 1012.52 1013.13 1013.99 1014.77 1015.35 1015.93 1016.47 1017.01 1017.65 1018.14 1018.62 1019.14 1019.70 1020.24 1020.85 1021.64 1022.31
1003.61 1003.81 1004.01 1004.16 1004.26 1004.32 1004.38 1004.37 1004.22 1004.07 1003.90 1003.73 1004.49 1004.91 1005.19 1005.28 1005.02 1004.99 1005.42 1005.12 1005.08 1005.09 1005.22 1005.84 1006.33 1006.27 1006.60 1006.71 1007.36 1007.67 1007.61 1007.95 1007.75 1008.61 1009.09 1010.24 1011.65 1013.11 1013.96 1014.59 1015.16 1015.63 1016.09 1016.55 1016.86 1017.47 1017.97 1018.61 1019.27 1019.95 1020.63 1021.30 1022.03 1022.68
1004.50 1004.76 1004.87 1004.93 1004.98 1004.97 1004.91 1004.76 1004.40 1004.18 1004.45 1004.53 1004.37 1004.97 1005.06 1005.16 1005.39 1005.67 1005.79 1005.67 1005.14 1005.76 1005.97 1006.15 1006.35 1006.72 1007.16 1006.91 1007.63 1008.17 1008.25 1008.59 1008.52 1009.05 1009.85 1010.55 1012.42 1013.53 1014.54 1015.30 1015.83 1016.10 1016.48 1016.97 1017.22 1017.77 1018.33 1018.98 1019.75 1020.53 1021.22 1022.00 1022.90 1023.83
1005.30 1005.49 1005.62 1005.63 1005.60 1005.50 1005.39 1005.24 1005.19 1005.19 1005.05 1004.45 1004.84 1005.70 1005.73 1006.29 1006.26 1006.16 1006.43 1006.10 1006.32 1006.59 1006.51 1006.71 1007.35 1007.60 1007.74 1008.00 1008.58 1008.79 1009.24 1009.39 1009.53 1010.21 1010.39 1012.08 1013.34 1014.38 1015.18 1015.98 1016.53 1016.84 1017.19 1017.56 1018.10 1018.55 1019.09 1019.79 1020.53 1021.31 1022.28 1023.24 1023.98 1024.69
1006.17 1006.27 1006.38 1006.42 1006.35 1006.17 1006.00 1005.82 1005.58 1005.10 1004.79 1005.22 1005.85 1006.68 1006.74 1007.12 1007.42 1007.59 1007.16 1006.89 1007.11 1006.97 1007.26 1007.95 1008.58 1008.79 1008.91 1009.34 1009.33 1009.66 1010.29 1010.21 1010.31 1010.62 1011.44 1013.12 1014.35 1015.28 1016.02 1016.65 1017.19 1017.77 1018.15 1018.52 1019.12 1019.74 1020.35 1020.97 1021.73 1022.40 1023.09 1023.88 1024.55 1025.25
1006.86 1006.89 1006.82 1006.92 1006.75 1006.50 1006.27 1006.01 1005.69 1005.25 1005.70 1006.26 1006.61 1007.51 1008.21 1008.81 1008.87 1008.80 1008.30 1007.92 1007.83 1007.72 1007.94 1008.34 1008.64 1009.18 1009.34 1009.86 1009.74 1010.30 1010.79 1010.71 1010.84 1011.89 1013.21 1014.31 1015.30 1016.11 1016.83 1017.43 1018.08 1018.59 1019.06 1019.56 1020.19 1020.69 1021.30 1021.92 1022.54 1023.30 1024.03 1024.59 1025.18 1025.75
1007.22 1007.14 1007.67 1007.47 1007.16 1006.92 1006.57 1006.06 1005.85 1005.98 1006.63 1007.66 1008.42 1008.90 1009.25 1009.43 1009.76 1009.47 1009.10 1008.56 1008.02 1007.88 1007.76 1007.98 1008.61 1009.30 1009.57 1009.81 1010.02 1010.30 1010.61 1011.26 1012.64 1013.67 1014.54 1015.28 1016.06 1016.79 1017.44 1018.13 1018.74 1019.21 1019.66 1020.30 1020.97 1021.53 1022.07 1022.64 1023.18 1023.80 1024.53 1025.13 1025.59 1026.04
1007.54 1008.12 1008.21 1007.70 1007.29 1007.03 1006.56 1006.39 1006.63 1007.31 1008.11 1008.67 1009.74 1009.91 1009.82 1010.22 1010.53 1010.41 1009.83 1009.07 1008.31 1008.24 1008.26 1008.16 1008.88 1009.26 1009.65 1009.67 1010.15 1010.88 1012.05 1013.11 1013.94 1014.73 1015.35 1015.93 1016.61 1017.35 1018.06 1018.68 1019.25 1019.70 1020.23 1020.84 1021.43 1021.99 1022.54 1023.04 1023.66 1024.20 1024.71 1025.39 1025.77 1026.30
1008.17 1008.63 1008.42 1007.99 1007.45 1007.09 1007.21 1007.19 1007.55 1008.32 1009.36 1009.98 1010.22 1010.81 1010.88 1011.05 1011.19 1010.86 1010.30 1009.45 1008.84 1008.73 1008.86 1009.35 1009.65 1009.94 1010.20 1010.57 1011.26 1012.51 1013.43 1014.26 1014.86 1015.40 1015.96 1016.61 1017.22 1017.92 1018.57 1019.16 1019.67 1020.12 1020.65 1021.17 1021.63 1022.17 1022.73 1023.17 1023.38 1023.74 1024.29 1024.81 1025.43 1025.97
1009.26 1008.97 1008.56 1008.14 1007.96 1007.63 1007.96 1008.37 1008.47 1009.49 1010.59 1010.92 1011.18 1011.28 1011.47 1011.63 1011.61 1011.28 1010.72 1009.94 1009.35 1009.25 1009.63 1009.93 1010.28 1010.75 1011.39 1011.75 1012.47 1013.21 1013.89 1014.39 1015.25 1016.08 1016.70 1017.25 1017.79 1018.34 1018.93 1019.51 1019.98 1020.40 1020.83 1021.24 1021.60 1021.95 1022.33 1022.40 1022.54 1023.30 1023.83 1024.32 1024.71 1025.25
1009.48 1009.13 1008.77 1008.20 1007.91 1007.76 1008.69 1009.24 1009.32 1009.98 1010.72 1011.43 1011.51 1011.56 1011.71 1012.03 1012.01 1011.72 1011.14 1010.38 1010.02 1009.93 1010.05 1010.45 1011.37 1012.11 1012.48 1012.87 1013.04 1013.52 1014.08 1014.66 1015.34 1016.17 1017.07 1017.76 1018.26 1018.77 1019.27 1019.68 1020.05 1020.51 1020.86 1021.08 1021.28 1021.56 1021.71 1021.88 1022.47 1023.03 1023.56 1023.80 1024.38 1024.93
1009.38 1009.49 1008.96 1008.46 1008.33 1008.86 1009.88 1010.17 1010.59 1010.99 1011.36 1011.78 1012.06 1012.05 1012.30 1012.09 1011.95 1011.69 1011.27 1010.91 1010.74 1010.68 1010.95 1011.83 1012.65 1013.17 1013.25 1013.38 1013.52 1013.86 1014.29 1014.58 1015.06 1015.40 1016.29 1017.48 1018.31 1018.71 1019.20 1019.53 1020.06 1020.35 1020.52 1020.76 1021.08 1021.31 1021.59 1022.05 1022.61 1023.20 1023.69 1024.22 1024.86 1025.59
1010.18 1009.84 1009.33 1009.21 1009.46 1010.11 1010.81 1011.24 1011.23 1011.26 1011.47 1011.91 1012.06 1012.14 1012.24 1012.17 1012.16 1012.07 1011.87 1011.53 1011.33 1011.79 1012.05 1012.47 1012.96 1013.31 1013.55 1013.84 1013.91 1014.00 1014.42 1014.91 1015.37 1015.80 1016.36 1017.24 1017.96 1018.49 1018.97 1019.43 1019.81 1020.08 1020.38 1020.71 1021.00 1021.42 1021.72 1022.24 1023.00 1023.66 1024.30 1024.98 1025.58 1026.22
1010.46 1010.22 1010.16 1010.25 1010.75 1011.27 1012.11 1011.71 1011.51 1011.35 1011.46 1011.70 1011.74 1011.85 1012.23 1012.33 1012.40 1012.30 1012.11 1011.81 1012.17 1012.46 1012.55 1012.88 1013.28 1013.65 1014.04 1014.44 1014.62 1014.79 1014.88 1014.96 1015.34 1016.06 1016.75 1017.19 1017.75 1018.31 1018.85 1019.35 1019.59 1019.87 1020.23 1020.67 1021.06 1021.51 1022.09 1022.78 1023.50 1024.19 1024.84 1025.52 1026.21 1026.87
1011.17 1011.49 1011.70 1011.66 1011.68 1012.25 1012.53 1011.86 1011.43 1011.23 1011.43 1011.33 1011.44 1011.62 1012.09 1012.41 1012.58 1012.27 1011.67 1011.55 1012.80 1013.16 1013.32 1013.80 1014.00 1014.35 1014.57 1014.70 1014.86 1015.29 1015.42 1015.50 1016.14 1016.70 1017.01 1017.52 1018.06 1018.57 1018.96 1019.33 1019.60 1019.86 1020.12 1020.62 1021.22 1021.88 1022.53 1023.19 1023.93 1024.59 1025.22 1025.89 1026.53 1027.05
1012.04 1013.02 1012.79 1012.45 1012.37 1012.29 1012.19 1012.01 1011.89 1011.53 1011.68 1011.92 1011.86 1011.88 1012.21 1012.45 1012.10 1011.75 1011.74 1012.42 1012.98 1013.61 1014.01 1014.17 1014.29 1014.27 1014.40 1014.74 1015.29 1015.91 1016.24 1015.88 1016.34 1016.99 1017.40 1017.71 1018.24 1018.77 1019.19 1019.47 1019.73 1020.00 1020.31 1020.75 1021.46 1022.12 1022.81 1023.57 1024.17 1024.75 1025.36 1025.93 1026.55 1027.31
1012.63 1013.23 1013.05 1012.71 1012.62 1012.38 1012.27 1012.19 1012.08 1011.96 1011.83 1011.92 1012.02 1012.41 1012.49 1012.32 1012.16 1011.92 1011.99 1013.11 1013.62 1014.19 1014.52 1014.64 1014.61 1014.61 1014.64 1014.78 1015.46 1015.92 1016.24 1016.33 1016.69 1017.21 1017.70 1018.08 1018.40 1018.69 1019.01 1019.33 1019.68 1020.24 1020.56 1020.91 1021.55 1022.19 1023.03 1023.60 1024.31 1024.94 1025.56 1026.24 1026.91 1027.70
1012.99 1013.06 1012.99 1013.15 1012.84 1012.73 1012.70 1012.65 1012.49 1012.31 1012.07 1011.93 1011.92 1012.42 1012.48 1012.31 1012.01 1012.53 1013.43 1014.02 1014.43 1014.95 1015.07 1015.14 1015.06 1015.02 1015.06 1015.66 1016.07 1016.46 1016.80 1017.02 1017.04 1017.64 1018.28 1018.74 1018.91 1018.91 1019.09 1019.30 1019.71 1020.35 1020.80 1021.16 1021.64 1022.29 1022.99 1023.78 1024.56 1025.33 1026.10 1026.88 1027.44 1028.06
1013.13 1013.09 1013.20 1013.37 1013.14 1013.05 1013.03 1012.81 1012.72 1012.42 1012.11 1011.75 1011.97 1012.22 1012.24 1012.22 1012.77 1013.55 1014.18 1014.88 1015.20 1015.46 1015.61 1015.69 1015.69 1015.74 1015.86 1016.29 1016.91 1017.42 1017.83 1018.20 1018.47 1018.75 1019.19 1019.62 1019.88 1019.96 1019.92 1019.95 1020.22 1020.70 1021.17 1021.52 1022.00 1022.64 1023.37 1024.14 1024.97 1025.79 1026.58 1027.36 1028.14 1028.74
1013.28 1013.23 1013.30 1013.52 1013.53 1013.48 1013.33 1013.05 1012.76 1012.36 1012.30 1012.14 1012.34 1012.25 1012.44 1013.15 1013.93 1014.35 1014.89 1015.29 1015.53 1015.69 1015.83 1016.00 1016.29 1016.44 1016.69 1017.07 1017.50 1017.81 1018.22 1018.37 1018.61 1018.90 1019.12 1019.70 1020.28 1020.80 1020.89 1020.98 1021.24 1021.57 1021.94 1022.36 1022.90 1023.45 1024.10 1024.83 1025.58 1026.35 1027.32 1028.23 1029.09 1029.80
1013.32 1013.45 1013.53 1013.42 1013.63 1013.30 1013.19 1013.32 1013.35 1013.60 1013.45 1013.52 1013.45 1013.12 1013.21 1013.89 1014.65 1015.09 1015.27 1015.52 1015.66 1015.67 1015.64 1015.83 1016.27 1016.47 1016.77 1017.12 1017.54 1017.97 1018.23 1018.32 1018.38 1018.47 1018.53 1019.11 1019.87 1020.88 1021.28 1021.71 1022.15 1022.60 1023.03 1023.53 1024.22 1024.99 1025.58 1026.19 1026.96 1027.75 1028.54 1029.30 1030.02 1030.69
1013.66 1013.75 1013.62 1013.41 1013.18 1013.29 1013.75 1014.12 1014.23 1014.27 1014.17 1013.92 1013.87 1013.92 1013.69 1014.23 1014.71 1015.21 1015.51 1015.59 1015.65 1015.77 1015.87 1016.02 1016.23 1016.44 1016.63 1016.88 1017.25 1017.68 1018.07 1018.49 1018.75 1018.77 1018.85 1019.33 1020.16 1020.93 1021.57 1022.17 1022.75 1023.37 1024.00 1024.58 1025.14 1025.80 1026.54 1027.14 1027.80 1028.51 1029.18 1029.86 1030.62 1031.26
1013.98 1013.76 1013.60 1013.35 1013.32 1014.15 1014.37 1014.21 1013.91 1013.91 1013.58 1013.85 1013.63 1013.86 1014.23 1014.58 1014.72 1015.50 1016.41 1016.36 1016.23 1016.19 1016.21 1016.14 1016.21 1016.47 1016.76 1016.85 1017.05 1017.49 1017.70 1018.56 1019.07 1019.38 1019.67 1020.12 1020.73 1021.42 1022.05 1022.69 1023.39 1023.95 1024.48 1025.02 1025.66 1026.21 1026.72 1027.37 1028.05 1028.84 1029.76 1030.49 1031.08 1031.77
1014.09 1014.08 1014.06 1013.96 1013.76 1013.91 1014.15 1014.29 1013.79 1013.59 1013.50 1013.52 1013.46 1013.70 1014.13 1014.41 1014.77 1016.19 1017.09 1017.12 1016.97 1016.67 1016.17 1016.33 1016.31 1016.61 1017.03 1017.35 1017.68 1018.13 1018.57 1019.07 1019.51 1019.85 1020.28 1020.87 1021.45 1022.07 1022.67 1023.25 1023.81 1024.33 1024.87 1025.45 1026.04 1026.62 1027.22 1027.92 1028.76 1029.55 1030.27 1031.02 1031.75 1032.45
Wind_Speed
12 16 17 17 16 14 17 14 17 14 17 17 18 15 22 19 15 7 1 3 3 3 9 5 6 13 13 9 9 13 7 4 5 6 5 3 1 3 4 3 6 8 7 7 7 5 8 9 3 4 5 5 6 9
21 26 20 22 21 17 15 17 17 16 17 18 19 17 17 18 16 11 1 5 5 2 9 11 13 9 11 12 9 11 2 12 5 5 2 3 2 1 5 5 4 2 2 3 5 4 4 5 5 4 5 6 6 8
20 19 17 22 23 22 20 18 16 10 14 17 13 21 23 21 14 11 3 3 5 8 8 7 9 13 11 10 8 5 5 4 2 2 2 2 2 3 4 3 5 4 5 2 7 6 4 6 7 7 8 9 8 9
23 22 24 24 21 19 18 17 12 9 13 15 15 21 18 16 14 11 5 5 4 3 5 7 7 11 7 7 9 7 9 3 6 5 3 2 2 3 2 3 4 3 3 7 5 6 6 7 8 8 9 9 9 9
20 20 19 19 19 17 18 14 7 13 12 11 11 12 11 12 10 6 4 2 1 1 6 8 10 9 9 8 10 10 9 8 5 3 3 2 3 3 1 3 4 4 5 2 4 9 7 8 8 9 9 9 9 10
18 18 17 17 18 16 12 9 12 13 9 10 14 14 14 13 11 5 2 4 7 9 7 5 5 7 7 8 8 6 3 3 3 2 4 3 0 2 4 4 4 3 2 3 4 10 12 11 10 9 9 9 9 10
17 17 16 17 16 16 12 9 15 10 13 14 14 14 11 7 2 2 3 3 5 4 4 6 5 3 2 4 6 5 3 3 2 4 2 2 3 3 2 4 7 5 7 9 11 13 10 10 7 9 11 10 11 9
15 11 15 15 13 14 14 14 13 15 16 15 13 11 11 12 11 4 4 4 6 0 4 4 4 5 3 5 3 2 3 1 4 2 4 3 4 2 4 9 8 8 8 6 3 3 10 12 11 11 11 11 11 9
16 16 16 16 16 16 14 13 12 10 10 8 9 11 4 2 3 3 5 10 4 2 3 3 6 4 3 3 4 1 1 2 3 2 2 1 4 3 5 10 10 11 6 8 10 11 11 11 11 10 10 10 9 8
14 17 16 15 15 13 12 10 8 6 5 5 3 4 4 3 4 5 2 2 3 2 4 4 5 4 5 3 2 2 2 4 3 2 3 3 4 4 6 9 9 8 11 11 12 10 10 10 10 10 9 8 9 8
16 16 16 14 13 11 10 8 6 7 6 2 3 2 3 1 2 2 2 1 3 3 3 5 6 6 3 3 3 2 1 2 3 4 3 4 4 6 8 7 8 7 10 10 8 9 8 10 7 8 8 8 9 9
19 16 14 12 12 11 10 9 7 4 3 2 5 4 1 2 1 4 3 0 1 4 3 6 7 7 2 2 3 3 2 2 3 2 1 3 4 10 9 8 7 5 7 6 6 8 7 9 9 7 8 8 9 11
16 16 15 14 14 14 12 12 10 5 5 2 4 4 1 3 2 2 3 2 4 3 3 5 5 2 2 4 3 2 1 2 1 1 2 4 7 7 8 9 7 6 6 7 7 8 10 10 9 10 11 9 10 9
16 15 15 14 13 12 12 10 8 6 3 3 2 4 3 3 5 5 5 6 4 4 8 8 4 2 2 4 2 3 2 2 3 3 4 6 8 8 7 7 7 8 8 10 11 11 11 11 10 10 9 9 9 9
13 13 13 15 14 12 10 9 10 2 3 4 5 5 5 3 5 2 2 5 5 6 6 6 4 3 2 2 1 3 2 4 2 4 3 5 9 9 8 7 7 7 7 8 9 9 10 9 9 9 8 7 8 8
10 9 9 14 12 12 11 3 4 3 4 4 7 4 5 6 5 3 3 3 3 4 3 3 3 3 1 4 3 3 3 2 3 3 3 6 8 7 7 7 7 7 7 8 8 8 9 8 8 9 9 7 7 7
8 5 12 14 14 9 10 3 3 5 4 4 3 2 4 6 5 2 3 3 1 2 2 2 2 3 1 2 3 4 3 3 4 4 3 5 8 8 7 8 7 7 8 8 9 8 8 8 9 10 10 9 9 9
9 6 12 14 11 4 3 4 3 4 6 4 4 4 5 3 2 2 2 4 3 3 3 3 1 2 0 2 3 3 3 4 4 4 4 7 8 8 8 9 8 7 8 8 8 9 10 10 10 8 11 11 10 10
7 8 13 13 8 2 3 4 4 4 5 2 2 3 3 3 3 3 3 4 3 4 3 1 1 2 3 3 4 4 5 4 5 5 5 7 7 8 8 8 7 7 8 9 10 7 8 10 8 8 7 8 7 6
5 10 16 15 11 3 4 3 4 4 3 3 3 3 3 2 1 2 4 3 3 1 1 2 4 3 3 3 4 4 4 6 6 6 6 5 5 8 8 8 6 8 8 9 8 8 7 6 7 7 6 6 6 6
6 7 9 6 4 7 5 3 3 2 3 3 1 2 2 0 1 2 1 2 1 2 3 3 4 2 4 3 3 4 5 4 3 2 7 7 6 6 6 6 8 6 6 6 6 6 5 6 6 6 5 6 7 8
4 10 4 6 5 4 4 5 2 1 2 3 3 2 1 2 2 1 2 1 1 3 2 2 4 5 5 5 4 5 6 7 7 6 8 10 6 6 6 6 6 6 6 6 6 6 6 6 7 6 7 7 8 6
6 4 4 6 4 4 3 4 2 0 2 3 3 3 2 1 1 2 1 3 2 2 2 4 5 7 7 6 6 6 4 5 5 5 6 5 5 5 6 6 5 6 6 6 6 5 6 10 9 8 7 8 7 7
3 5 5 4 5 3 1 2 1 2 2 1 2 1 3 1 2 2 2 3 3 4 4 5 4 5 4 4 4 4 3 6 6 3 4 5 5 5 5 5 4 4 5 6 6 7 8 7 10 8 8 8 7 7
3 4 3 4 2 1 2 2 3 3 2 1 1 1 2 1 2 2 2 3 4 3 4 4 4 3 2 3 4 4 3 2 5 6 2 5 6 5 5 5 4 4 6 8 8 8 8 8 7 8 8 8 9 9
3 3 4 2 1 2 2 2 0 1 2 1 1 3 0 1 2 3 2 3 2 3 3 2 2 2 3 4 5 4 3 2 6 5 4 4 5 5 6 7 6 5 4 6 8 10 10 8 9 10 8 9 10 10
1 2 2 1 3 1 1 1 2 1 1 2 2 3 3 3 3 3 3 2 2 2 2 3 3 2 4 6 6 5 4 5 3 6 6 7 5 1 4 6 7 6 5 7 8 10 10 10 10 9 9 8 7 7
2 1 1 2 0 1 1 2 3 3 2 2 3 4 2 2 3 2 3 3 4 2 3 2 4 4 5 6 6 5 5 6 8 8 7 7 5 6 6 6 7 10 6 6 8 8 9 9 10 10 10 9 7 6
2 1 1 2 2 2 3 3 3 2 4 1 1 3 1 4 1 2 3 4 3 3 4 4 4 4 5 5 4 4 5 5 7 9 9 6 5 4 4 6 7 7 7 9 12 11 12 10 10 10 11 9 7 7
2 4 3 5 3 4 2 2 2 2 3 3 3 2 3 3 2 2 3 4 4 4 3 3 5 5 6 6 5 5 4 3 2 4 6 8 7 7 6 7 7 8 8 10 11 13 17 14 13 10 9 7 6 7
2 2 3 3 3 0 2 2 1 2 2 2 0 3 3 2 3 2 3 2 1 2 3 4 5 4 5 5 6 6 5 3 5 6 8 9 9 8 8 8 8 8 9 9 9 9 10 9 9 10 10 9 9 7
3 3 3 3 1 3 1 2 2 3 3 3 4 5 2 3 4 4 2 2 1 2 4 4 5 4 3 3 4 3 6 7 5 6 11 8 8 9 9 8 9 8 9 10 9 10 10 10 8 9 9 10 9 9
2 1 2 3 3 3 3 3 3 3 3 3 3 2 2 2 2 4 2 2 3 4 2 2 3 6 7 7 8 8 9 7 9 11 13 13 13 12 8 7 8 9 11 9 9 9 10 13 10 10 10 10 9 9
Wind_Direction
257 256 240 239 225 230 228 181 200 161 145 152 145 163 171 160 185 214 115 108 260 113 65 105 194 185 166 164 149 154 142 167 185 202 201 191 253 179 92 70 173 184 196 203 230 242 231 360 265 268 9 62 22 25
274 252 225 229 215 184 163 157 144 156 156 151 153 156 150 166 206 211 145 227 233 23 101 85 70 44 28 22 135 165 115 168 173 217 140 79 129 74 144 174 172 178 26 25 18 48 82 46 76 57 42 75 73 78
104 94 125 135 126 140 139 136 137 147 173 167 182 164 168 183 193 208 171 218 131 121 84 50 33 39 48 46 57 158 147 102 105 347 90 96 147 171 184 142 123 171 194 114 182 109 102 107 88 71 71 79 86 94
98 90 93 110 116 124 123 117 110 122 139 151 186 180 165 176 204 207 184 199 146 117 91 70 74 56 72 73 68 45 113 140 138 116 88 83 96 60 72 114 68 36 194 135 97 129 123 96 95 101 93 94 93 92
101 104 110 104 114 120 118 115 130 116 114 146 163 168 161 193 187 192 212 281 319 179 115 112 84 58 77 93 105 113 128 152 155 158 129 101 105 97 98 114 90 13 11 353 58 132 84 115 120 119 110 107 108 112
101 97 104 106 105 100 121 151 139 120 144 130 151 150 172 183 192 192 71 27 75 117 135 95 94 94 87 91 98 119 128 150 132 106 91 64 210 272 179 74 86 84 15 7 110 71 91 110 114 121 121 120 114 110
100 97 97 111 119 125 133 114 94 97 128 125 124 130 138 130 139 285 127 83 345 313 108 125 119 59 68 134 130 121 241 62 152 109 73 103 160 244 358 94 129 107 97 104 115 113 110 137 125 123 124 125 122 120
106 95 104 103 100 103 105 97 83 75 85 107 124 136 149 139 145 112 26 3 347 294 69 88 97 134 235 140 95 293 135 150 51 37 135 139 117 318 85 117 126 119 116 104 132 17 129 123 126 130 135 141 136 131
106 105 101 99 93 90 90 82 75 69 73 88 119 144 141 315 78 78 323 310 278 326 112 122 147 126 205 80 118 65 19 109 71 67 350 332 155 63 128 158 160 156 155 131 114 113 126 131 139 149 150 149 135 127
105 97 91 90 84 75 69 65 57 45 20 329 195 51 35 46 322 261 198 53 25 51 36 78 89 132 137 141 53 105 304 157 153 136 203 30 82 95 131 147 151 143 138 141 134 143 146 153 154 159 159 139 131 132
100 94 86 80 72 62 54 39 1 344 282 100 67 68 88 205 243 31 45 92 135 104 93 117 131 127 166 129 118 6 84 296 190 134 192 159 141 148 121 119 138 136 149 160 162 156 161 154 149 147 139 136 140 149
99 94 82 72 68 62 58 30 327 7 18 50 97 122 60 26 34 77 55 11 129 101 150 131 131 111 65 340 107 205 94 271 66 61 199 186 101 141 132 133 124 124 128 115 130 132 128 128 130 130 127 117 99 95
90 86 81 70 59 53 50 39 30 2 278 134 54 49 273 1 89 170 135 143 104 104 138 118 69 32 127 56 39 70 143 76 152 208 169 55 123 133 133 122 112 109 130 114 114 117 115 111 109 114 103 106 107 106
83 77 69 61 51 42 41 32 5 341 355 65 88 62 3 76 54 20 37 73 80 121 92 92 74 77 99 58 274 103 34 243 247 217 86 131 146 124 121 118 113 96 83 100 102 105 104 100 96 98 105 111 115 120
83 64 52 33 28 22 11 353 337 29 58 47 22 55 61 59 52 31 30 94 102 104 117 135 114 99 84 109 134 125 181 222 274 57 70 118 126 124 119 111 127 131 115 111 113 108 104 107 106 104 108 119 117 125
117 75 21 360 1 1 349 302 27 45 53 52 33 91 110 100 88 15 45 98 126 148 169 130 127 87 173 135 166 210 233 44 78 70 100 125 130 128 123 130 141 137 126 117 118 125 122 122 131 122 112 113 118 112
31 48 353 351 343 323 350 42 37 51 52 47 52 316 82 69 69 19 351 15 347 57 23 88 96 46 135 213 120 25 38 65 102 106 113 124 137 127 132 142 133 125 125 129 129 134 136 126 122 132 132 139 138 134
79 50 6 353 339 74 19 21 57 58 61 32 70 35 49 40 72 2 341 332 27 35 23 43 100 59 106 127 95 96 106 87 80 108 110 123 120 127 138 143 144 139 134 136 137 136 133 149 153 149 143 144 140 145
46 16 354 346 349 4 54 40 19 81 53 61 76 63 68 68 41 354 330 325 35 66 98 159 163 81 67 55 101 106 137 150 137 110 94 106 124 132 129 134 138 140 143 149 154 154 160 174 150 145 147 158 146 159
330 17 349 323 315 77 66 44 35 52 73 60 27 37 59 70 326 318 310 5 12 19 67 46 45 44 59 64 72 106 112 117 129 132 130 125 124 133 140 151 149 149 155 161 161 161 172 134 137 141 160 154 145 140
10 347 321 341 45 42 51 24 70 73 107 70 27 45 47 298 26 355 50 345 312 1 70 76 93 48 87 89 114 125 134 155 164 149 155 152 159 152 162 145 142 168 163 160 153 159 143 139 136 122 116 100 93 83
3 318 347 18 45 58 54 19 49 51 62 104 170 134 124 115 106 51 354 96 185 57 52 98 133 151 130 106 87 90 106 91 97 90 99 128 153 157 151 149 167 165 160 153 162 156 146 134 120 120 108 106 101 113
321 347 30 21 68 51 56 331 89 42 122 151 196 136 120 110 50 253 218 206 103 54 120 112 89 80 106 103 98 99 121 139 117 106 136 138 134 133 137 157 166 162 156 163 152 145 125 120 117 121 121 110 107 110
96 39 26 29 28 70 293 351 219 96 22 231 137 96 90 105 173 231 253 105 86 151 150 137 134 126 125 156 127 111 109 84 84 95 102 121 133 139 144 159 156 161 156 141 132 126 130 125 128 136 132 134 144 141
8 27 348 58 354 100 89 67 341 65 105 166 73 65 93 251 231 239 225 106 136 141 139 165 170 170 144 114 92 100 290 157 132 134 129 135 131 132 145 155 163 148 144 136 136 139 137 138 147 145 148 143 140 131
44 17 3 29 14 30 61 93 120 202 101 109 109 52 304 260 264 242 75 91 113 127 150 178 179 181 158 134 132 138 138 114 112 124 117 132 149 161 159 164 158 133 153 142 145 147 146 154 141 144 132 126 120 130
3 104 121 47 331 43 64 12 33 282 222 221 160 162 205 236 232 83 126 85 117 87 56 50 37 50 118 105 95 80 73 50 101 109 96 74 55 94 178 173 157 138 142 152 149 147 151 139 136 127 123 127 132 135
274 160 214 168 251 342 303 308 198 228 232 241 152 194 242 267 34 51 63 103 101 109 131 114 59 52 90 103 102 103 98 94 88 91 84 69 54 60 63 77 100 115 110 124 132 132 132 132 131 134 136 126 112 117
244 136 189 181 236 208 237 228 238 224 2 289 223 214 197 63 66 120 140 147 149 162 158 152 126 110 102 102 126 136 154 158 152 156 157 139 142 109 99 100 96 94 94 91 93 107 116 119 121 115 112 111 104 106
232 159 233 174 201 234 206 349 31 39 343 12 321 246 181 135 123 127 161 169 183 193 181 157 148 171 156 160 151 156 180 196 201 204 187 164 143 134 127 117 111 107 103 99 97 95 92 95 98 103 110 116 118 124
41 207 245 246 239 152 71 58 291 265 253 261 240 263 291 77 154 188 216 227 199 147 163 170 171 191 173 173 166 168 157 115 92 74 82 108 127 130 129 125 118 111 112 116 118 116 125 126 128 135 140 134 128 135
184 240 270 252 120 78 246 251 261 251 203 210 238 204 179 227 236 126 46 344 143 186 218 231 187 168 162 149 142 152 137 123 136 131 131 124 124 122 116 114 119 128 132 130 131 140 137 134 136 125 128 141 140 122
272 276 267 279 233 225 127 269 222 256 198 236 230 196 200 303 306 87 92 357 357 5 234 129 89 122 112 107 102 102 113 116 122 114 112 114 116 118 119 120 123 127 127 127 128 130 132 125 128 135 130 124 129 133